Regional Weather Roundup
Issued by NWS

Home | Current Version | Previous Version | Text Only | Print | Product List | Glossary On
Versions: 1 2 3 4 5 6 7 8 9 10 11 12 13 14 15 16 17 18 19 20 21 22 23 24 25 26 27 28 29 30 31 32 33 34 35 36 37 38 39 40 41 42 43 44 45 46 47 48 49 50
000
ASUS43 KMPX 171101
RWRMN
WEATHER ROUNDUP FOR MINNESOTA
NATIONAL WEATHER SERVICE TWIN CITIES/CHANHASSEN MN
600 AM CDT THU AUG 17 2017


NOTE: "FAIR" INDICATES FEW OR NO CLOUDS BELOW 12,000 FEET WITH NO
SIGNIFICANT WEATHER AND/OR OBSTRUCTIONS TO VISIBILITY. N/A MEANS
CURRENT SKY AND/OR WEATHER CONDITIONS ARE NOT AVAILABLE.

MNZ060>063-068>070-171200-
   Twin Cities Metro

CITY           SKY/WX    TMP DP  RH WIND       PRES   REMARKS
TWIN CITIES    LGT RAIN  67  64  90 NE8       29.47S
ST PAUL        LGT RAIN  66  66 100 E10       29.47F
CRYSTAL        LGT RAIN  66  63  90 NE5       29.48R
BLAINE         LGT RAIN  66  66 100 E6        29.49S
LAKEVILLE      DRIZZLE   64  64 100 N6        29.43S
EDEN PRAIRIE   LGT RAIN  67  65  93 N7        29.46R
SOUTH ST PAUL  CLOUDY    65  65  99 E7        29.46F
LAKE ELMO      RAIN      64  64 100 E7        29.50F
$$
MNZ001>005-007-008-013>017-022>024-027-028-171200-
   Northwest Minnesota

CITY           SKY/WX    TMP DP  RH WIND       PRES   REMARKS
BEMIDJI        LGT RAIN  60  59  98 N8        29.74F
HALLOCK        FOG       55  55 100 CALM      29.83S VSB<1/4
ROSEAU           N/A     59  54  82 N6        29.82S HAZE
WARROAD        CLOUDY    61  57  88 N8        29.82S
THIEF RVR FALL CLOUDY    61  61 100 N14       29.81R
CROOKSTON      CLOUDY    63  61  94 N12       29.81R
FOSSTON        DRIZZLE   59  59 100 N12       29.77S
DETROIT LAKES  DRIZZLE   63  61  94 N8G20     29.75S
MOORHEAD       CLOUDY    61  61 100 N13       29.77S
PARK RAPIDS    LGT RAIN  64  61  90 N9        29.71S
MAHNOMEN       LGT RAIN  61  60  99 N13       29.75S
$$
MNZ006-009>011-018-025>026-171200-
   North Central Minnesota

CITY           SKY/WX    TMP DP  RH WIND       PRES   REMARKS
BAUDETTE       CLOUDY    60  59  96 NE8       29.79F
FLAG ISLAND    CLOUDY    63  57  82 NE3       29.81S
INTL FALLS     RAIN      60  58  92 NE8       29.78F FOG
WASKISH        LGT RAIN  59  59 100 NE5       29.77S
BIG FORK       RAIN      59  57  94 N5        29.73F
LONGVILLE      RAIN      61  59  94 N3        29.69F
GRAND RAPIDS   RAIN      59  58  96 N8        29.70F
CRANE LAKE     LGT RAIN  57  57 100 N3        29.78S
ORR            DRIZZLE   57  55  94 CALM      29.71F
COOK           LGT RAIN  57  57 100 NE3       29.72F
WALKER         LGT RAIN  60  59  97 N7        29.71F
$$
MNZ012-019>021-037-171200-
   Northeast Minnesota

CITY           SKY/WX    TMP DP  RH WIND       PRES   REMARKS
DULUTH         LGT RAIN  59  59 100 E20G31    29.64F FOG
ELY            RAIN      57  57 100 NE8G16    29.73F
HIBBING        HVY RAIN  57  57 100 N10       29.70F FOG
EVELETH        HVY RAIN  58  55  90 NE6       29.71F
DULUTH HARBOR  LGT RAIN  63  61  94 NE25      29.62F
TWO HARBORS    CLOUDY    63  57  82 E15G23    29.65S
GRAND MARAIS     N/A     64  62  93 NE18G30   29.69F
$$
MNZ029>031-032-039>041-046>048-054>057-064-171200-
   West Central Minnesota

CITY           SKY/WX    TMP DP  RH WIND       PRES   REMARKS
FERGUS FALLS   FOG       63  63 100 N14G21    29.73R VSB 1
WHEATON        CLOUDY    63  59  88 NW15      29.77R
MORRIS         DRIZZLE   64  64 100 NW14G20   29.70S
ALEXANDRIA     LGT RAIN  64  64 100 N14       29.70R
ELBOW LAKE     CLOUDY    64  63  99 W16       29.72S
WADENA         RAIN      63  63 100 N12       29.69S
GLENWOOD       CLOUDY    64  63  94 NW17      29.68R
APPLETON       DRIZZLE   64  63  94 NW10      29.70R
BENSON         CLOUDY    64  63  94 N14G20    29.70R
ORTONVILLE     CLOUDY    63  61  94 MISG      29.73R
MADISON        CLOUDY    66  66 100 NW20      29.72R FOG
WILLMAR        CLOUDY    64  64 100 NW20      29.65R
$$
MNZ033>034-036-042>043-049>051-058-059-171200-
   Central Minnesota

CITY           SKY/WX    TMP DP  RH WIND       PRES   REMARKS
ST CLOUD       RAIN      63  63 100 N10G20    29.55R FOG
SAUK CENTRE    RAIN      63  61  95 N13G20    29.65R
PAYNESVILLE    HVY RAIN  63  63  98 NW15G22   29.62R
AITKIN         DRIZZLE   61  57  88 N10       29.62S
PINE RIVER     LGT RAIN  59  57  94 N12       29.71R
BRAINERD       LGT RAIN  62  61  96 N12       29.64R FOG
STAPLES        DRIZZLE   61  61 100 N10       29.67S
LONG PRAIRIE   RAIN      61  61 100 W15       29.65S
LITTLE FALLS   RAIN      61  61 100 NW8G17    29.62R
LITCHFIELD     DRIZZLE   64  64 100 NW23G33   29.59R
BUFFALO        RAIN      66  64  93 N8        29.52R
MAPLE LAKE     DRIZZLE   65  64  97 NW13G18   29.54R
HUTCHINSON     LGT RAIN  64  64  98 NW18G26   29.57R
$$
MNZ037-044-045-052-053-171200-
   East Central Minnesota

CITY           SKY/WX    TMP DP  RH WIND       PRES   REMARKS
PRINCETON      DRIZZLE   66  64  94 N9        29.53S
MORA           DRIZZLE   61  59  94 NE3       29.56F
RUSH CITY      HVY RAIN  66  64  95 SE3       29.53S
MOOSE LAKE     CLOUDY    61  59  94 NE7       29.59S
HINCKLEY       RAIN      63  63 100 NE7       29.56S
CLOQUET        CLOUDY    61  57  88 NE16      29.62F FOG
MCGREGOR       CLOUDY    61  59  94 N8G17     29.63S
$$
MNZ071>073-080-081-089-090-097-098-171200-
   Southwest Minnesota

CITY           SKY/WX    TMP DP  RH WIND       PRES   REMARKS
MONTEVIDEO     DRIZZLE   64  64 100 N12G21    29.69R
GRANITE FALLS  DRIZZLE   66  65  96 NW15G26   29.69R
CANBY          CLOUDY    64  62  95 W16G24    29.74S
MARSHALL       CLOUDY    64  63  96 NW23G29   29.69S
REDWOOD FALLS  CLOUDY    66  63  90 NW17G31   29.63R
OLIVIA         CLOUDY    64  63  94 NW16G24   29.63R
PIPESTONE      CLOUDY    64  61  88 NW13G21   29.76R
WINDOM         DRIZZLE   64  63  94 NW16G23   29.68R
WORTHINGTON    CLOUDY    64  63  96 W12       29.74R
JACKSON        CLOUDY    64  61  88 W16       29.70S
TRACY          CLOUDY    64  64 100 NW17G25   29.70S
SLAYTON        CLOUDY    63  58  84 NW18G24   29.73R
$$
MNZ065>067-074>077-082>085-091>093-171200-
   South Central Minnesota

CITY           SKY/WX    TMP DP  RH WIND       PRES   REMARKS
MANKATO        RAIN      65  63  93 W21G31    29.54R FOG
NEW ULM        DRIZZLE   64  63  94 NW25G33   29.59R
ST JAMES       CLOUDY    64  63  94 W17G28    29.63R
FAIRMONT       CLOUDY    67  62  84 W17       29.66R
GLENCOE        CLOUDY    65  65 100 NW15G26   29.52R FOG
FARIBAULT      CLOUDY    66  64  94 W16G26    29.48R
OWATONNA       DRIZZLE   64  63  94 W20G28    29.52S
WASECA         RAIN      63  61  94 W15G29    29.55R
ALBERT LEA     CLOUDY    66  66 100 SW12G20   29.61R
$$
MNZ078>079-086>088-094>096-171200-
   Southeast Minnesota

CITY           SKY/WX    TMP DP  RH WIND       PRES   REMARKS
ROCHESTER      MOCLDY    65  63  93 SW20G28   29.58F
RED WING       CLOUDY    70  63  78 SE13G21   29.48F
STANTON        DRIZZLE   66  64  91 SW16G23   29.42F
DODGE CENTER   LGT RAIN  64  63  94 S21G29    29.55F
WINONA         PTCLDY    70  64  83 SW6       29.59F
AUSTIN         CLOUDY    66  63  88 SW20      29.60F
PRESTON        CLOUDY    64  62  92 SW10      29.63F
$$
ABBREVIATIONS USED IN REMARKS
   TC - TEMPERATURES IN CELSIUS
  WCI - WIND CHILL INDEX
   HX - HEAT INDEX
  VSB - VISIBILITY
$$



USA.gov is the U.S. government's official web portal to all federal, state and local government web resources and services.